This is the latest recevied weather packets stored in our database for station/object WA1TYB-13. If no packets are shown the sender has not sent any weather packets the latest 10 day(s).
| Time | Temp. | Humidity | Pressure | Rain* | Wind** | Luminosity | Snow |
|---|---|---|---|---|---|---|---|
| 1787775120 | 30.56° C | 20% | 1021.2 hPa | 0 mm | - | 612 W/m² | - |
| 1787774819 | 30.56° C | 22% | 1021.2 hPa | 0 mm | - | 578 W/m² | - |
| 1787774519 | 30.56° C | 22% | 1021.4 hPa | 0 mm | - | 614 W/m² | - |
| 1787774213 | 30.56° C | 22% | 1021.4 hPa | 0 mm | - | 614 W/m² | - |
| 1787773911 | 29.44° C | 23% | 1021.6 hPa | 0 mm | - | 660 W/m² | - |
| 1787773610 | 29.44° C | 26% | 1021.5 hPa | 0 mm | - | 236 W/m² | - |
| 1787773307 | 29.44° C | 24% | 1021.7 hPa | 0 mm | - | 235 W/m² | - |
| 1787773002 | 30° C | 23% | 1021.6 hPa | 0 mm | - | 429 W/m² | - |
| 1787772697 | 30° C | 25% | 1021.7 hPa | 0 mm | - | 595 W/m² | - |
| 1787772396 | 30° C | 25% | 1021.6 hPa | 0 mm | - | 602 W/m² | - |
| 1787772095 | 30° C | 26% | 1021.7 hPa | 0 mm | - | 626 W/m² | - |
| 1787771795 | 29.44° C | 26% | 1021.7 hPa | 0 mm | - | 597 W/m² | - |
| 1787771494 | 29.44° C | 27% | 1021.7 hPa | 0 mm | - | 563 W/m² | - |
| 1787771188 | 29.44° C | 25% | 1022.1 hPa | 0 mm | - | 576 W/m² | - |
| 1787770884 | 28.89° C | 26% | 1022.1 hPa | 0 mm | - | 590 W/m² | - |
| 1787770581 | 28.89° C | 25% | 1022.1 hPa | 0 mm | - | 587 W/m² | - |
| 1787770276 | 28.89° C | 26% | 1022.4 hPa | 0 mm | - | 587 W/m² | - |
| 1787769975 | 28.33° C | 27% | 1022.2 hPa | 0 mm | - | 583 W/m² | - |
| 1787769670 | 28.33° C | 27% | 1022.3 hPa | 0 mm | - | 560 W/m² | - |
| 1787769368 | 28.33° C | 28% | 1022.4 hPa | 0 mm | - | 495 W/m² | - |
| 1787769064 | 28.89° C | 25% | 1022.4 hPa | 0 mm | - | 575 W/m² | - |
| 1787768759 | 28.89° C | 25% | 1022.4 hPa | 0 mm | - | 573 W/m² | - |
| 1787768455 | 28.33° C | 23% | 1022.3 hPa | 0 mm | - | 570 W/m² | - |
| 1787768151 | 27.78° C | 25% | 1022.7 hPa | 0 mm | - | 551 W/m² | - |
| 1787767846 | 27.78° C | 25% | 1022.7 hPa | 0 mm | - | 542 W/m² | - |
* Rain latest hour (hover to see other rain measurements)
** Current wind speed in m/s (hover to see current wind gust speed)